Time,TemperatureF,DewpointF,PressureIn,WindDirection,WindDirectionDegrees,WindSpeedMPH,WindSpeedGustMPH,Humidity,HourlyPrecipIn,Conditions,Clouds,dailyrainin,SoftwareType,DateUTC
2013-05-09 00:00:00,61.7,57.9,29.82,North,0,0.0,0.0,87,0.02,,,0.00,WUHU216HW,2013-05-09 04:00:00,
2013-05-09 00:01:00,61.7,57.9,29.82,North,0,0.0,0.0,87,0.02,,,0.00,WUHU216HW,2013-05-09 04:01:00,
2013-05-09 00:02:00,61.7,57.9,29.82,North,0,0.0,0.0,87,0.02,,,0.00,WUHU216HW,2013-05-09 04:02:00,
2013-05-09 00:04:00,61.6,57.7,29.82,North,0,0.0,0.0,87,0.02,,,0.00,WUHU216HW,2013-05-09 04:04:00,
2013-05-09 00:09:00,61.7,57.9,29.82,North,0,0.0,0.0,87,0.02,,,0.00,WUHU216HW,2013-05-09 04:09:00,
2013-05-09 00:14:00,61.6,57.7,29.82,North,0,0.0,0.0,87,0.01,,,0.00,WUHU216HW,2013-05-09 04:14:00,
2013-05-09 00:19:00,61.6,57.7,29.82,North,0,0.0,0.0,87,0.01,,,0.00,WUHU216HW,2013-05-09 04:19:00,
2013-05-09 00:24:00,61.6,57.7,29.81,North,0,0.0,0.0,87,0.01,,,0.00,WUHU216HW,2013-05-09 04:24:00,
2013-05-09 00:29:00,61.6,57.7,29.81,North,0,0.0,0.0,87,0.01,,,0.00,WUHU216HW,2013-05-09 04:29:00,
2013-05-09 00:34:00,61.6,57.7,29.81,North,0,0.0,0.0,87,0.01,,,0.00,WUHU216HW,2013-05-09 04:34:00,
2013-05-09 00:39:00,61.4,57.5,29.81,North,0,0.0,0.0,87,0.01,,,0.00,WUHU216HW,2013-05-09 04:39:00,
2013-05-09 00:44:00,61.4,57.5,29.81,North,0,0.0,0.0,87,0.01,,,0.00,WUHU216HW,2013-05-09 04:44:00,
2013-05-09 00:49:00,61.4,57.5,29.81,North,0,0.0,0.0,87,0.01,,,0.00,WUHU216HW,2013-05-09 04:49:00,
2013-05-09 00:55:00,61.4,57.5,29.81,North,0,0.0,0.0,87,0.00,,,0.00,WUHU216HW,2013-05-09 04:55:00,
2013-05-09 01:00:00,61.4,57.5,29.81,North,0,0.0,0.0,87,0.00,,,0.00,WUHU216HW,2013-05-09 05:00:00,
2013-05-09 01:05:00,61.4,57.5,29.80,North,0,0.0,0.0,87,0.00,,,0.00,WUHU216HW,2013-05-09 05:05:00,
2013-05-09 01:10:00,61.2,57.3,29.80,North,0,0.0,0.0,87,0.00,,,0.00,WUHU216HW,2013-05-09 05:10:00,
2013-05-09 01:15:00,61.2,57.3,29.80,North,0,0.0,0.0,87,0.00,,,0.00,WUHU216HW,2013-05-09 05:15:00,
2013-05-09 01:20:00,61.0,57.2,29.80,North,0,0.0,0.0,87,0.00,,,0.00,WUHU216HW,2013-05-09 05:20:00,
2013-05-09 01:25:00,61.0,57.2,29.80,North,0,0.0,0.0,87,0.00,,,0.00,WUHU216HW,2013-05-09 05:25:00,
2013-05-09 01:30:00,60.8,57.0,29.79,North,0,0.0,0.0,87,0.00,,,0.00,WUHU216HW,2013-05-09 05:30:00,
2013-05-09 01:35:00,60.8,57.0,29.79,North,0,0.0,0.0,87,0.00,,,0.00,WUHU216HW,2013-05-09 05:35:00,
2013-05-09 01:40:00,60.8,57.0,29.79,North,0,0.0,0.0,87,0.00,,,0.00,WUHU216HW,2013-05-09 05:40:00,
2013-05-09 02:00:00,60.8,57.0,29.78,North,0,0.0,0.0,87,0.00,,,0.00,WUHU216HW,2013-05-09 06:00:00,
2013-05-09 02:05:00,60.8,57.0,29.78,North,0,0.0,0.0,87,0.00,,,0.00,WUHU216HW,2013-05-09 06:05:00,
2013-05-09 02:10:00,60.8,57.0,29.78,North,0,0.0,0.0,87,0.00,,,0.00,WUHU216HW,2013-05-09 06:10:00,
2013-05-09 02:15:00,60.8,57.3,29.78,North,0,0.0,0.0,88,0.00,,,0.00,WUHU216HW,2013-05-09 06:15:00,
2013-05-09 02:20:00,60.8,57.3,29.78,North,0,0.0,0.0,88,0.00,,,0.00,WUHU216HW,2013-05-09 06:20:00,
2013-05-09 02:25:00,60.8,57.3,29.78,North,0,0.0,0.0,88,0.00,,,0.00,WUHU216HW,2013-05-09 06:25:00,
2013-05-09 02:31:00,60.8,57.3,29.78,North,0,0.0,0.0,88,0.00,,,0.00,WUHU216HW,2013-05-09 06:31:00,
2013-05-09 02:36:00,60.7,57.2,29.78,North,0,0.0,0.0,88,0.00,,,0.00,WUHU216HW,2013-05-09 06:36:00,
2013-05-09 02:41:00,60.7,57.2,29.78,North,0,0.0,0.0,88,0.00,,,0.00,WUHU216HW,2013-05-09 06:41:00,
2013-05-09 03:00:00,60.5,57.0,29.78,North,0,0.0,0.0,88,0.00,,,0.00,WUHU216HW,2013-05-09 07:00:00,
2013-05-09 03:05:00,60.5,57.0,29.77,North,0,0.0,0.0,88,0.00,,,0.00,WUHU216HW,2013-05-09 07:05:00,
2013-05-09 03:10:00,60.3,56.8,29.77,North,0,0.0,0.0,88,0.00,,,0.00,WUHU216HW,2013-05-09 07:10:00,
2013-05-09 03:15:00,60.1,56.6,29.77,North,0,0.0,0.0,88,0.00,,,0.00,WUHU216HW,2013-05-09 07:15:00,
2013-05-09 03:20:00,59.9,56.4,29.77,North,0,0.0,0.0,88,0.00,,,0.00,WUHU216HW,2013-05-09 07:20:00,
2013-05-09 03:25:00,59.8,56.3,29.77,North,0,0.0,0.0,88,0.00,,,0.00,WUHU216HW,2013-05-09 07:25:00,
2013-05-09 03:30:00,59.6,56.1,29.77,North,0,0.0,0.0,88,0.00,,,0.00,WUHU216HW,2013-05-09 07:30:00,
2013-05-09 03:35:00,59.6,56.1,29.77,North,0,0.0,0.0,88,0.00,,,0.00,WUHU216HW,2013-05-09 07:35:00,
2013-05-09 03:40:00,59.6,56.1,29.77,North,0,0.0,0.0,88,0.00,,,0.00,WUHU216HW,2013-05-09 07:40:00,
2013-05-09 04:00:00,59.0,55.5,29.76,North,0,0.0,0.0,88,0.00,,,0.00,WUHU216HW,2013-05-09 08:00:00,
2013-05-09 04:06:00,59.0,55.5,29.76,North,0,0.0,0.0,88,0.00,,,0.00,WUHU216HW,2013-05-09 08:06:00,
2013-05-09 05:00:00,58.1,54.6,29.75,North,0,0.0,0.0,88,0.00,,,0.00,WUHU216HW,2013-05-09 09:00:00,
2013-05-09 05:05:00,58.1,54.6,29.75,North,0,0.0,0.0,88,0.00,,,0.00,WUHU216HW,2013-05-09 09:05:00,
2013-05-09 06:00:00,58.0,54.7,29.75,North,0,0.0,0.0,89,0.00,,,0.00,WUHU216HW,2013-05-09 10:00:00,
2013-05-09 06:05:00,58.0,54.7,29.75,North,0,0.0,0.0,89,0.00,,,0.00,WUHU216HW,2013-05-09 10:05:00,
2013-05-09 06:10:00,58.0,54.7,29.75,North,0,0.0,0.0,89,0.00,,,0.00,WUHU216HW,2013-05-09 10:10:00,
2013-05-09 06:15:00,58.1,54.9,29.75,North,0,0.0,0.0,89,0.00,,,0.00,WUHU216HW,2013-05-09 10:15:00,
2013-05-09 06:20:00,58.1,54.9,29.75,North,0,0.0,0.0,89,0.00,,,0.00,WUHU216HW,2013-05-09 10:20:00,
2013-05-09 06:25:00,58.3,55.4,29.76,North,0,0.0,0.0,90,0.00,,,0.00,WUHU216HW,2013-05-09 10:25:00,
2013-05-09 06:30:00,58.3,55.4,29.76,North,0,0.0,0.0,90,0.00,,,0.00,WUHU216HW,2013-05-09 10:30:00,
2013-05-09 06:35:00,58.5,55.6,29.76,North,0,0.0,0.0,90,0.00,,,0.00,WUHU216HW,2013-05-09 10:35:00,
2013-05-09 06:40:00,58.5,55.6,29.76,North,0,0.0,0.0,90,0.00,,,0.00,WUHU216HW,2013-05-09 10:40:00,
2013-05-09 07:00:00,59.4,56.5,29.75,North,0,0.0,0.0,90,0.00,,,0.00,WUHU216HW,2013-05-09 11:00:00,
2013-05-09 07:05:00,59.4,56.5,29.75,North,0,0.0,0.0,90,0.00,,,0.00,WUHU216HW,2013-05-09 11:05:00,
2013-05-09 07:10:00,59.6,56.7,29.75,North,0,0.0,0.0,90,0.00,,,0.00,WUHU216HW,2013-05-09 11:10:00,
2013-05-09 07:15:00,59.8,56.9,29.75,North,0,0.0,0.0,90,0.00,,,0.00,WUHU216HW,2013-05-09 11:15:00,
2013-05-09 07:20:00,59.8,56.5,29.76,North,0,0.0,0.0,89,0.00,,,0.00,WUHU216HW,2013-05-09 11:20:00,
2013-05-09 07:25:00,59.8,56.5,29.76,North,0,0.0,0.0,89,0.00,,,0.00,WUHU216HW,2013-05-09 11:25:00,
2013-05-09 07:30:00,59.9,56.7,29.76,North,0,0.0,0.0,89,0.00,,,0.00,WUHU216HW,2013-05-09 11:30:00,
2013-05-09 07:36:00,60.1,56.9,29.76,North,0,0.0,0.0,89,0.00,,,0.00,WUHU216HW,2013-05-09 11:36:00,
2013-05-09 07:41:00,60.1,56.9,29.76,North,0,0.0,0.0,89,0.00,,,0.00,WUHU216HW,2013-05-09 11:41:00,
2013-05-09 07:46:00,60.1,56.9,29.77,North,0,0.0,0.0,89,0.00,,,0.00,WUHU216HW,2013-05-09 11:46:00,
2013-05-09 07:51:00,60.3,57.1,29.77,North,0,0.0,0.0,89,0.00,,,0.00,WUHU216HW,2013-05-09 11:51:00,
2013-05-09 07:56:00,60.5,57.2,29.77,North,0,0.0,0.0,89,0.00,,,0.00,WUHU216HW,2013-05-09 11:56:00,
2013-05-09 08:01:00,60.7,57.4,29.77,North,0,0.0,0.0,89,0.00,,,0.00,WUHU216HW,2013-05-09 12:01:00,
2013-05-09 08:06:00,60.8,57.3,29.77,North,0,0.0,0.0,88,0.00,,,0.00,WUHU216HW,2013-05-09 12:06:00,
2013-05-09 08:11:00,61.2,57.7,29.77,North,0,0.0,0.0,88,0.00,,,0.00,WUHU216HW,2013-05-09 12:11:00,
2013-05-09 08:16:00,61.6,58.1,29.77,North,0,0.0,0.0,88,0.00,,,0.00,WUHU216HW,2013-05-09 12:16:00,
2013-05-09 08:21:00,61.7,58.2,29.77,North,0,0.0,0.0,88,0.00,,,0.00,WUHU216HW,2013-05-09 12:21:00,
2013-05-09 08:26:00,61.9,58.1,29.77,North,0,0.0,0.0,87,0.00,,,0.00,WUHU216HW,2013-05-09 12:26:00,
2013-05-09 08:31:00,62.1,58.2,29.77,North,0,0.0,0.0,87,0.00,,,0.00,WUHU216HW,2013-05-09 12:31:00,
2013-05-09 08:37:00,62.3,58.4,29.77,North,0,0.0,0.0,87,0.00,,,0.00,WUHU216HW,2013-05-09 12:37:00,
2013-05-09 08:42:00,62.3,58.4,29.77,North,0,0.0,0.0,87,0.00,,,0.00,WUHU216HW,2013-05-09 12:42:00,
2013-05-09 09:00:00,63.0,57.7,29.77,North,0,0.0,0.0,83,0.00,,,0.00,WUHU216HW,2013-05-09 13:00:00,
2013-05-09 09:05:00,63.0,57.7,29.77,North,0,0.0,0.0,83,0.00,,,0.00,WUHU216HW,2013-05-09 13:05:00,
2013-05-09 09:10:00,63.5,58.2,29.77,North,0,0.0,0.0,83,0.00,,,0.00,WUHU216HW,2013-05-09 13:10:00,
2013-05-09 09:15:00,64.1,58.8,29.76,North,0,0.0,0.0,83,0.00,,,0.00,WUHU216HW,2013-05-09 13:15:00,
2013-05-09 09:20:00,64.6,59.1,29.76,North,0,0.0,0.0,82,0.00,,,0.00,WUHU216HW,2013-05-09 13:20:00,
2013-05-09 09:25:00,65.2,59.5,29.76,North,0,0.0,0.0,82,0.00,,,0.00,WUHU216HW,2013-05-09 13:25:00,
2013-05-09 09:30:00,65.7,59.8,29.76,North,0,0.0,0.0,81,0.00,,,0.00,WUHU216HW,2013-05-09 13:30:00,
2013-05-09 09:35:00,65.9,59.6,29.75,North,0,0.0,0.0,80,0.00,,,0.00,WUHU216HW,2013-05-09 13:35:00,
2013-05-09 09:40:00,65.9,59.6,29.75,North,0,0.0,0.0,80,0.00,,,0.00,WUHU216HW,2013-05-09 13:40:00,
2013-05-09 10:00:00,66.8,59.0,29.75,North,0,0.0,0.0,76,0.00,,,0.00,WUHU216HW,2013-05-09 14:00:00,
2013-05-09 10:05:00,67.0,59.1,29.75,North,0,0.0,0.0,76,0.00,,,0.00,WUHU216HW,2013-05-09 14:05:00,
2013-05-09 10:10:00,67.0,58.8,29.75,North,0,0.0,0.0,75,0.00,,,0.00,WUHU216HW,2013-05-09 14:10:00,
2013-05-09 10:15:00,67.1,59.0,29.75,North,0,0.0,0.0,75,0.00,,,0.00,WUHU216HW,2013-05-09 14:15:00,
2013-05-09 10:20:00,67.3,59.1,29.75,North,0,0.0,0.0,75,0.00,,,0.00,WUHU216HW,2013-05-09 14:20:00,
2013-05-09 10:25:00,67.5,59.0,29.75,North,0,0.0,0.0,74,0.00,,,0.00,WUHU216HW,2013-05-09 14:25:00,
2013-05-09 10:30:00,67.9,58.5,29.75,North,0,0.0,0.0,72,0.00,,,0.00,WUHU216HW,2013-05-09 14:30:00,
2013-05-09 10:35:00,68.2,59.2,29.75,North,0,0.0,0.0,73,0.00,,,0.00,WUHU216HW,2013-05-09 14:35:00,
2013-05-09 10:40:00,68.8,59.8,29.75,North,0,0.0,0.0,73,0.00,,,0.00,WUHU216HW,2013-05-09 14:40:00,
2013-05-09 10:45:00,69.1,59.7,29.74,North,0,0.0,0.0,72,0.00,,,0.00,WUHU216HW,2013-05-09 14:45:00,
2013-05-09 10:50:00,69.5,60.0,29.75,North,0,0.0,0.0,72,0.00,,,0.00,WUHU216HW,2013-05-09 14:50:00,
2013-05-09 10:55:00,69.5,60.0,29.75,North,0,0.0,0.0,72,0.00,,,0.00,WUHU216HW,2013-05-09 14:55:00,
2013-05-09 11:00:00,70.2,59.9,29.75,North,0,0.0,0.0,70,0.00,,,0.00,WUHU216HW,2013-05-09 15:00:00,
2013-05-09 11:05:00,70.2,59.5,29.75,North,0,0.0,0.0,69,0.00,,,0.00,WUHU216HW,2013-05-09 15:05:00,
2013-05-09 11:10:00,70.4,59.7,29.75,North,0,0.0,0.0,69,0.00,,,0.00,WUHU216HW,2013-05-09 15:10:00,
2013-05-09 11:15:00,70.6,59.5,29.74,North,0,0.0,0.0,68,0.00,,,0.00,WUHU216HW,2013-05-09 15:15:00,
2013-05-09 11:20:00,70.9,59.9,29.74,North,0,0.0,0.0,68,0.00,,,0.00,WUHU216HW,2013-05-09 15:20:00,
2013-05-09 11:25:00,71.1,59.1,29.74,North,0,0.0,0.0,66,0.00,,,0.00,WUHU216HW,2013-05-09 15:25:00,
2013-05-09 11:30:00,71.3,59.3,29.74,North,0,0.0,0.0,66,0.00,,,0.00,WUHU216HW,2013-05-09 15:30:00,
2013-05-09 11:35:00,71.5,59.5,29.74,North,0,0.0,0.0,66,0.00,,,0.00,WUHU216HW,2013-05-09 15:35:00,
2013-05-09 11:40:00,71.5,59.5,29.74,North,0,0.0,0.0,66,0.00,,,0.00,WUHU216HW,2013-05-09 15:40:00,
2013-05-09 12:00:00,71.3,58.4,29.73,North,0,0.0,0.0,64,0.00,,,0.00,WUHU216HW,2013-05-09 16:00:00,
2013-05-09 12:05:00,71.1,58.3,29.73,North,0,0.0,0.0,64,0.00,,,0.00,WUHU216HW,2013-05-09 16:05:00,
2013-05-09 12:10:00,70.7,57.5,29.73,North,0,0.0,0.0,63,0.00,,,0.00,WUHU216HW,2013-05-09 16:10:00,
2013-05-09 12:15:00,70.2,57.9,29.73,North,0,0.0,0.0,65,0.00,,,0.00,WUHU216HW,2013-05-09 16:15:00,
2013-05-09 12:20:00,69.5,58.0,29.73,North,0,0.0,0.0,67,0.01,,,0.01,WUHU216HW,2013-05-09 16:20:00,
2013-05-09 12:25:00,68.8,58.1,29.74,North,0,0.0,0.0,69,0.01,,,0.01,WUHU216HW,2013-05-09 16:25:00,
2013-05-09 12:30:00,68.2,58.2,29.74,North,0,0.0,0.0,70,0.02,,,0.02,WUHU216HW,2013-05-09 16:30:00,
2013-05-09 12:35:00,68.0,58.7,29.74,North,0,0.0,0.0,72,0.02,,,0.02,WUHU216HW,2013-05-09 16:35:00,
2013-05-09 12:40:00,68.0,58.7,29.74,North,0,0.0,0.0,72,0.02,,,0.02,WUHU216HW,2013-05-09 16:40:00,
2013-05-09 13:00:00,65.9,58.1,29.74,North,0,0.0,0.0,76,0.03,,,0.03,WUHU216HW,2013-05-09 17:00:00,
2013-05-09 13:05:00,65.9,58.1,29.74,North,0,0.0,0.0,76,0.03,,,0.03,WUHU216HW,2013-05-09 17:05:00,
2013-05-09 14:00:00,64.1,57.8,29.72,North,0,0.0,0.0,80,0.00,,,0.03,WUHU216HW,2013-05-09 18:00:00,
2013-05-09 14:05:00,64.1,57.8,29.72,North,0,0.0,0.0,80,0.00,,,0.03,WUHU216HW,2013-05-09 18:05:00,
2013-05-09 14:10:00,64.4,58.5,29.72,North,0,0.0,0.0,81,0.00,,,0.03,WUHU216HW,2013-05-09 18:10:00,
2013-05-09 14:15:00,64.8,59.2,29.72,North,0,0.0,0.0,82,0.00,,,0.03,WUHU216HW,2013-05-09 18:15:00,
2013-05-09 14:20:00,65.2,59.2,29.72,North,0,0.0,0.0,81,0.00,,,0.03,WUHU216HW,2013-05-09 18:20:00,
2013-05-09 14:25:00,65.9,60.0,29.71,North,0,0.0,0.0,81,0.00,,,0.03,WUHU216HW,2013-05-09 18:25:00,
2013-05-09 14:30:00,67.0,61.0,29.71,North,0,0.0,0.0,81,0.00,,,0.03,WUHU216HW,2013-05-09 18:30:00,
2013-05-09 14:35:00,68.0,60.6,29.71,North,0,0.0,0.0,77,0.00,,,0.03,WUHU216HW,2013-05-09 18:35:00,
2013-05-09 14:40:00,68.6,61.1,29.71,North,0,0.0,0.0,77,0.00,,,0.03,WUHU216HW,2013-05-09 18:40:00,
2013-05-09 14:45:00,69.5,60.8,29.71,North,0,0.0,0.0,74,0.00,,,0.03,WUHU216HW,2013-05-09 18:45:00,
2013-05-09 14:50:00,70.2,61.1,29.70,North,0,0.0,0.0,73,0.00,,,0.03,WUHU216HW,2013-05-09 18:50:00,
2013-05-09 14:55:00,70.9,60.7,29.70,North,0,0.0,0.0,70,0.00,,,0.03,WUHU216HW,2013-05-09 18:55:00,
2013-05-09 15:00:00,71.3,61.0,29.70,North,0,0.0,0.0,70,0.00,,,0.03,WUHU216HW,2013-05-09 19:00:00,
2013-05-09 15:05:00,72.0,60.8,29.70,North,0,0.0,0.0,68,0.00,,,0.03,WUHU216HW,2013-05-09 19:05:00,
2013-05-09 15:10:00,72.5,60.5,29.69,North,0,0.0,0.0,66,0.00,,,0.03,WUHU216HW,2013-05-09 19:10:00,
2013-05-09 15:15:00,72.7,60.2,29.69,North,0,0.0,0.0,65,0.00,,,0.03,WUHU216HW,2013-05-09 19:15:00,
2013-05-09 15:21:00,73.1,61.0,29.69,North,0,0.0,0.0,66,0.00,,,0.03,WUHU216HW,2013-05-09 19:21:00,
2013-05-09 15:26:00,73.3,60.8,29.69,North,0,0.0,0.0,65,0.00,,,0.03,WUHU216HW,2013-05-09 19:26:00,
2013-05-09 15:31:00,73.8,61.3,29.69,North,0,0.0,0.0,65,0.00,,,0.03,WUHU216HW,2013-05-09 19:31:00,
2013-05-09 15:36:00,74.0,61.0,29.69,North,0,0.0,0.0,64,0.00,,,0.03,WUHU216HW,2013-05-09 19:36:00,
2013-05-09 15:41:00,74.0,61.0,29.69,North,0,0.0,0.0,64,0.00,,,0.03,WUHU216HW,2013-05-09 19:41:00,
2013-05-09 16:00:00,72.9,59.0,29.67,North,0,0.0,0.0,62,0.00,,,0.03,WUHU216HW,2013-05-09 20:00:00,
2013-05-09 16:05:00,72.7,59.0,29.67,North,0,0.0,0.0,62,0.00,,,0.03,WUHU216HW,2013-05-09 20:05:00,
2013-05-09 16:10:00,72.4,58.6,29.67,North,0,0.0,0.0,62,0.00,,,0.03,WUHU216HW,2013-05-09 20:10:00,
2013-05-09 16:15:00,72.0,59.1,29.67,North,0,0.0,0.0,64,0.00,,,0.03,WUHU216HW,2013-05-09 20:15:00,
2013-05-09 16:20:00,70.9,58.5,29.68,North,0,0.0,0.0,65,0.01,,,0.04,WUHU216HW,2013-05-09 20:20:00,
2013-05-09 16:25:00,70.0,58.5,29.68,North,0,0.0,0.0,67,0.01,,,0.04,WUHU216HW,2013-05-09 20:25:00,
2013-05-09 16:30:00,69.5,58.9,29.68,North,0,0.0,0.0,69,0.02,,,0.04,WUHU216HW,2013-05-09 20:30:00,
2013-05-09 16:35:00,69.3,59.1,29.67,North,0,0.0,0.0,70,0.02,,,0.05,WUHU216HW,2013-05-09 20:35:00,
2013-05-09 16:40:00,69.3,59.1,29.67,North,0,0.0,0.0,70,0.02,,,0.05,WUHU216HW,2013-05-09 20:40:00,
2013-05-09 17:00:00,67.3,58.8,29.67,North,0,0.0,0.0,74,0.06,,,0.10,WUHU216HW,2013-05-09 21:00:00,
2013-05-09 17:05:00,67.1,59.0,29.67,North,0,0.0,0.0,75,0.06,,,0.10,WUHU216HW,2013-05-09 21:05:00,
2013-05-09 17:10:00,67.0,58.8,29.67,North,0,0.0,0.0,75,0.06,,,0.10,WUHU216HW,2013-05-09 21:10:00,
2013-05-09 17:15:00,66.8,59.0,29.67,North,0,0.0,0.0,76,0.05,,,0.10,WUHU216HW,2013-05-09 21:15:00,
2013-05-09 17:20:00,66.6,59.1,29.68,North,0,0.0,0.0,77,0.05,,,0.10,WUHU216HW,2013-05-09 21:20:00,
2013-05-09 17:25:00,66.2,58.8,29.68,North,0,0.0,0.0,77,0.05,,,0.10,WUHU216HW,2013-05-09 21:25:00,
2013-05-09 17:30:00,65.7,58.7,29.68,North,0,0.0,0.0,78,0.04,,,0.10,WUHU216HW,2013-05-09 21:30:00,
2013-05-09 17:35:00,65.5,58.5,29.68,North,0,0.0,0.0,78,0.03,,,0.10,WUHU216HW,2013-05-09 21:35:00,
2013-05-09 17:40:00,65.3,58.7,29.67,North,0,0.0,0.0,79,0.04,,,0.10,WUHU216HW,2013-05-09 21:40:00,
2013-05-09 17:45:00,65.2,58.9,29.67,North,0,0.0,0.0,80,0.05,,,0.11,WUHU216HW,2013-05-09 21:45:00,
2013-05-09 17:50:00,65.2,58.9,29.68,North,0,0.0,0.0,80,0.04,,,0.12,WUHU216HW,2013-05-09 21:50:00,
2013-05-09 17:55:00,65.2,58.9,29.68,North,0,0.0,0.0,80,0.03,,,0.12,WUHU216HW,2013-05-09 21:55:00,
2013-05-09 18:00:00,65.2,58.9,29.67,North,0,0.0,0.0,80,0.03,,,0.12,WUHU216HW,2013-05-09 22:00:00,
2013-05-09 18:05:00,65.2,58.9,29.67,North,0,0.0,0.0,80,0.04,,,0.13,WUHU216HW,2013-05-09 22:05:00,
2013-05-09 18:10:00,65.2,58.9,29.67,North,0,0.0,0.0,80,0.04,,,0.13,WUHU216HW,2013-05-09 22:10:00,
2013-05-09 18:15:00,65.2,58.9,29.67,North,0,0.0,0.0,80,0.04,,,0.13,WUHU216HW,2013-05-09 22:15:00,
2013-05-09 18:20:00,65.0,58.7,29.67,North,0,0.0,0.0,80,0.04,,,0.13,WUHU216HW,2013-05-09 22:20:00,
2013-05-09 18:25:00,65.0,58.7,29.67,North,0,0.0,0.0,80,0.04,,,0.13,WUHU216HW,2013-05-09 22:25:00,
2013-05-09 18:30:00,65.0,58.7,29.67,North,0,0.0,0.0,80,0.04,,,0.13,WUHU216HW,2013-05-09 22:30:00,
2013-05-09 18:35:00,64.8,58.5,29.67,North,0,0.0,0.0,80,0.03,,,0.13,WUHU216HW,2013-05-09 22:35:00,
2013-05-09 18:40:00,64.8,58.5,29.67,North,0,0.0,0.0,80,0.03,,,0.13,WUHU216HW,2013-05-09 22:40:00,
2013-05-09 19:00:00,64.3,58.3,29.67,North,0,0.0,0.0,81,0.00,,,0.13,WUHU216HW,2013-05-09 23:00:00,
2013-05-09 19:05:00,64.1,58.2,29.68,North,0,0.0,0.0,81,0.00,,,0.13,WUHU216HW,2013-05-09 23:05:00,
2013-05-09 19:10:00,63.7,57.8,29.68,North,0,0.0,0.0,81,0.00,,,0.13,WUHU216HW,2013-05-09 23:10:00,
2013-05-09 19:15:00,63.7,57.8,29.68,North,0,0.0,0.0,81,0.00,,,0.13,WUHU216HW,2013-05-09 23:15:00,
2013-05-09 19:20:00,63.7,57.8,29.68,North,0,0.0,0.0,81,0.00,,,0.13,WUHU216HW,2013-05-09 23:20:00,
2013-05-09 19:25:00,63.7,57.8,29.68,North,0,0.0,0.0,81,0.00,,,0.13,WUHU216HW,2013-05-09 23:25:00,
2013-05-09 19:30:00,63.7,58.2,29.68,North,0,0.0,0.0,82,0.00,,,0.13,WUHU216HW,2013-05-09 23:30:00,
2013-05-09 19:35:00,63.4,57.8,29.68,North,0,0.0,0.0,82,0.00,,,0.13,WUHU216HW,2013-05-09 23:35:00,
2013-05-09 19:40:00,63.4,57.8,29.68,North,0,0.0,0.0,82,0.00,,,0.13,WUHU216HW,2013-05-09 23:40:00,
2013-05-09 19:45:00,63.4,58.1,29.68,North,0,0.0,0.0,83,0.00,,,0.13,WUHU216HW,2013-05-09 23:45:00,
2013-05-09 19:50:00,63.0,57.7,29.68,North,0,0.0,0.0,83,0.00,,,0.13,WUHU216HW,2013-05-09 23:50:00,
2013-05-09 19:55:00,63.0,57.7,29.68,North,0,0.0,0.0,83,0.00,,,0.13,WUHU216HW,2013-05-09 23:55:00,
2013-05-09 20:00:00,62.8,57.5,29.69,North,0,0.0,0.0,83,0.00,,,0.13,WUHU216HW,2013-05-10 00:00:00,
2013-05-09 20:05:00,62.6,57.3,29.69,North,0,0.0,0.0,83,0.00,,,0.13,WUHU216HW,2013-05-10 00:05:00,
2013-05-09 20:10:00,62.5,57.3,29.69,North,0,0.0,0.0,83,0.00,,,0.13,WUHU216HW,2013-05-10 00:10:00,
2013-05-09 20:15:00,62.3,57.1,29.69,North,0,0.0,0.0,83,0.00,,,0.13,WUHU216HW,2013-05-10 00:15:00,
2013-05-09 20:20:00,62.3,57.1,29.69,North,0,0.0,0.0,83,0.00,,,0.13,WUHU216HW,2013-05-10 00:20:00,
2013-05-09 20:25:00,62.3,57.3,29.69,North,0,0.0,0.0,84,0.00,,,0.13,WUHU216HW,2013-05-10 00:25:00,
2013-05-09 20:30:00,62.3,57.3,29.69,North,0,0.0,0.0,84,0.00,,,0.13,WUHU216HW,2013-05-10 00:30:00,
2013-05-09 20:35:00,62.1,57.3,29.69,North,0,0.0,0.0,84,0.00,,,0.13,WUHU216HW,2013-05-10 00:35:00,
2013-05-09 20:40:00,62.1,57.3,29.69,North,0,0.0,0.0,84,0.00,,,0.13,WUHU216HW,2013-05-10 00:40:00,
2013-05-09 21:00:00,61.7,57.2,29.70,North,0,0.0,0.0,85,0.00,,,0.13,WUHU216HW,2013-05-10 01:00:00,
2013-05-09 21:05:00,61.7,57.2,29.70,North,0,0.0,0.0,85,0.00,,,0.13,WUHU216HW,2013-05-10 01:05:00,
2013-05-09 21:10:00,61.6,57.3,29.70,North,0,0.0,0.0,86,0.00,,,0.13,WUHU216HW,2013-05-10 01:10:00,
2013-05-09 21:15:00,61.6,57.3,29.70,North,0,0.0,0.0,86,0.00,,,0.13,WUHU216HW,2013-05-10 01:15:00,
2013-05-09 21:20:00,61.4,57.2,29.70,North,0,0.0,0.0,86,0.01,,,0.13,WUHU216HW,2013-05-10 01:20:00,
2013-05-09 21:25:00,61.4,57.2,29.70,North,0,0.0,0.0,86,0.01,,,0.15,WUHU216HW,2013-05-10 01:25:00,
2013-05-09 21:30:00,61.2,57.0,29.70,North,0,0.0,0.0,86,0.05,,,0.17,WUHU216HW,2013-05-10 01:30:00,
2013-05-09 21:35:00,61.0,56.9,29.70,North,0,0.0,0.0,86,0.06,,,0.19,WUHU216HW,2013-05-10 01:35:00,
2013-05-09 21:40:00,60.8,56.3,29.70,North,0,0.0,0.0,85,0.07,,,0.21,WUHU216HW,2013-05-10 01:40:00,
2013-05-09 21:45:00,60.8,56.7,29.70,North,0,0.0,0.0,86,0.07,,,0.21,WUHU216HW,2013-05-10 01:45:00,
2013-05-09 21:50:00,60.5,56.4,29.70,North,0,0.0,0.0,86,0.07,,,0.21,WUHU216HW,2013-05-10 01:50:00,
2013-05-09 21:55:00,60.3,56.2,29.70,North,0,0.0,0.0,86,0.07,,,0.21,WUHU216HW,2013-05-10 01:55:00,
2013-05-09 22:00:00,60.1,56.0,29.70,North,0,0.0,0.0,86,0.07,,,0.21,WUHU216HW,2013-05-10 02:00:00,
2013-05-09 22:05:00,60.1,56.0,29.70,North,0,0.0,0.0,86,0.07,,,0.21,WUHU216HW,2013-05-10 02:05:00,
2013-05-09 22:10:00,59.9,55.8,29.69,North,0,0.0,0.0,86,0.07,,,0.21,WUHU216HW,2013-05-10 02:10:00,
2013-05-09 22:15:00,59.8,55.6,29.69,North,0,0.0,0.0,86,0.07,,,0.21,WUHU216HW,2013-05-10 02:15:00,
2013-05-09 22:20:00,59.6,55.5,29.69,North,0,0.0,0.0,86,0.06,,,0.21,WUHU216HW,2013-05-10 02:20:00,
2013-05-09 22:25:00,59.6,55.5,29.69,North,0,0.0,0.0,86,0.03,,,0.21,WUHU216HW,2013-05-10 02:25:00,
2013-05-09 22:30:00,59.4,55.3,29.69,North,0,0.0,0.0,86,0.01,,,0.21,WUHU216HW,2013-05-10 02:30:00,
2013-05-09 22:35:00,59.2,55.1,29.69,North,0,0.0,0.0,86,0.00,,,0.21,WUHU216HW,2013-05-10 02:35:00,
2013-05-09 22:41:00,59.0,54.9,29.69,North,0,0.0,0.0,86,0.00,,,0.21,WUHU216HW,2013-05-10 02:41:00,
2013-05-09 22:46:00,59.0,55.2,29.69,North,0,0.0,0.0,87,0.00,,,0.21,WUHU216HW,2013-05-10 02:46:00,
2013-05-09 22:51:00,58.9,55.0,29.69,North,0,0.0,0.0,87,0.00,,,0.21,WUHU216HW,2013-05-10 02:51:00,
2013-05-09 22:56:00,58.7,54.8,29.69,North,0,0.0,0.0,87,0.00,,,0.21,WUHU216HW,2013-05-10 02:56:00,
2013-05-09 23:01:00,58.7,54.8,29.69,North,0,0.0,0.0,87,0.00,,,0.21,WUHU216HW,2013-05-10 03:01:00,
2013-05-09 23:06:00,58.5,54.6,29.69,North,0,0.0,0.0,87,0.00,,,0.21,WUHU216HW,2013-05-10 03:06:00,
2013-05-09 23:11:00,58.3,54.5,29.69,North,0,0.0,0.0,87,0.00,,,0.21,WUHU216HW,2013-05-10 03:11:00,
2013-05-09 23:16:00,58.3,54.5,29.69,North,0,0.0,0.0,87,0.00,,,0.21,WUHU216HW,2013-05-10 03:16:00,
2013-05-09 23:21:00,58.1,54.3,29.68,North,0,0.0,0.0,87,0.00,,,0.21,WUHU216HW,2013-05-10 03:21:00,
2013-05-09 23:27:00,58.1,54.3,29.68,North,0,0.0,0.0,87,0.00,,,0.21,WUHU216HW,2013-05-10 03:27:00,
2013-05-09 23:32:00,58.0,54.1,29.68,North,0,0.0,0.0,87,0.00,,,0.21,WUHU216HW,2013-05-10 03:32:00,
2013-05-09 23:37:00,58.0,54.1,29.68,North,0,0.0,0.0,87,0.00,,,0.21,WUHU216HW,2013-05-10 03:37:00,
2013-05-09 23:42:00,58.0,54.1,29.68,North,0,0.0,0.0,87,0.00,,,0.21,WUHU216HW,2013-05-10 03:42:00,
2013-05-09 23:47:00,57.6,53.7,29.68,North,0,0.0,0.0,87,0.00,,,0.21,WUHU216HW,2013-05-10 03:47:00,
2013-05-09 23:52:00,57.6,53.7,29.68,North,0,0.0,0.0,87,0.00,,,0.21,WUHU216HW,2013-05-10 03:52:00,
2013-05-09 23:57:00,57.6,53.7,29.69,North,0,0.0,0.0,87,0.00,,,0.21,WUHU216HW,2013-05-10 03:57:00,